Home > Time Zones > World Clock > Weather > Iran > Tehran > Past weeks

Flag for Iran Weather past 2 weeks in Tehran, Iran

Now
63 °F

Broken clouds.


Feels Like: 63 °F
Forecast: 61 / 76 °F
Wind: 16 mph from Northeast

Location: Tehran-Mehrabad


UV Index: 7 (High)

Visibility: N/A


Pressure: 29.92 "Hg

Humidity: 56%

Dew point: 46 °F

Location of TehranLocation

Historic Weather in Tehran

°F

Tehran temperature yesterday

Maximum temperature yesterday: 77 °F (at 5:30 PM)
Minimum temperature yesterday: 64 °F (at 7:00 AM)
Average temperature yesterday: 71 °F

Past Weeks' High & Low Weather Summary

 TemperatureHumidityPressure
High81 °F (Apr 21, 3:00 PM)82% (Apr 15, 7:30 AM)30.18 "Hg (Apr 15, 7:30 AM)
Low54 °F (Apr 11, 4:30 AM)8% (Apr 12, 4:00 PM)29.83 "Hg (Apr 9, 6:00 PM)
Average68 °F28%30.03 "Hg
* Reported Apr 8 3:30 PM — Apr 23 3:30 PM, Tehran, Weather by CustomWeather, © 2014

Note: Actual official high and low records may vary slightly from our data, if they occured in-between our weather recording intervals... More about our weather records

Advertising

Historic Weather Conditions — Data for Previous 24 hours

 ConditionsComfort  
Time TempWeatherWind HumidityBarometerVisibility
3:30 PM
Apr 23
59 °FSprinkles. Broken clouds.16 mph72%29.98 "HgN/A
3:00 PM59 °FThunderstorms. More clouds than sun.16 mph72%30.01 "Hg4 mi
2:30 PM59 °FThunderstorms. More clouds than sun.12 mph68%29.98 "Hg4 mi
2:00 PM63 °FThunderstorms. Broken clouds.21 mph45%29.98 "HgN/A
1:30 PM73 °FBroken clouds.23 mph36%29.95 "HgN/A
1:00 PM75 °FBroken clouds.14 mph31%29.98 "HgN/A
12:30 PM75 °FBroken clouds.9 mph27%29.98 "HgN/A
12:00 PM73 °FBroken clouds.9 mph31%29.98 "HgN/A
11:30 AM73 °FPartly sunny.7 mph33%30.01 "HgN/A
11:00 AM72 °FPartly sunny.7 mph36%30.01 "HgN/A
10:30 AM72 °FPartly sunny.5 mph38%30.01 "HgN/A
10:00 AM68 °FBroken clouds.5 mph43%30.04 "HgN/A
9:30 AM70 °FThunderstorms. Broken clouds.9 mph38%30.04 "HgN/A
9:00 AM70 °FPartly sunny.5 mph38%30.01 "HgN/A
8:30 AM70 °FScattered clouds.5 mph40%30.01 "HgN/A
8:00 AM68 °FPassing clouds.5 mph49%30.01 "HgN/A
7:30 AM66 °FPassing clouds.5 mph49%30.01 "HgN/A
7:00 AM66 °FPassing clouds.5 mph49%30.01 "HgN/A
6:30 AM66 °FPassing clouds.5 mph46%29.98 "HgN/A
5:30 AM66 °FPassing clouds.5 mph49%29.98 "HgN/A
5:00 AM66 °FPassing clouds.7 mph46%29.98 "HgN/A
4:30 AM70 °FSprinkles. Passing clouds.23 mph35%29.98 "HgN/A
4:00 AM70 °FPassing clouds.5 mph33%29.98 "HgN/A
3:30 AM70 °FPassing clouds.5 mph33%29.98 "HgN/A
3:00 AM70 °FPassing clouds.7 mph33%29.98 "HgN/A
2:30 AM70 °FPassing clouds.7 mph33%29.98 "HgN/A
1:30 AM70 °FPassing clouds.9 mph33%30.01 "HgN/A
1:00 AM72 °FPassing clouds.12 mph31%30.01 "HgN/A
12:30 AM72 °FPassing clouds.14 mph31%30.01 "HgN/A
12:00 AM72 °FPassing clouds.5 mph31%30.01 "HgN/A
11:30 PM
Apr 22
72 °FThundershowers. Passing clouds.7 mph31%30.01 "HgN/A
11:00 PM72 °FPassing clouds.7 mph29%30.01 "HgN/A
10:30 PM72 °FThunderstorms. Passing clouds.5 mph29%30.04 "HgN/A
10:00 PM72 °FPassing clouds.5 mph27%30.01 "HgN/A
9:30 PM73 °FPassing clouds.5 mph27%30.04 "HgN/A
9:00 PM72 °FScattered clouds.5 mph27%30.01 "HgN/A
8:30 PM73 °FScattered clouds.7 mph27%30.01 "HgN/A
8:00 PM73 °FPartly sunny.7 mph27%30.01 "HgN/A
7:30 PM73 °FScattered clouds.5 mph25%30.01 "HgN/A
7:00 PM75 °FScattered clouds.5 mph24%30.01 "HgN/A
6:30 PM75 °FScattered clouds.5 mph24%30.01 "HgN/A
6:00 PM77 °FPassing clouds.6 mph22%30.01 "HgN/A
5:30 PM77 °FPassing clouds.No wind22%30.01 "HgN/A
5:00 PM75 °FPassing clouds.5 mph24%30.04 "HgN/A
4:30 PM75 °FPassing clouds.5 mph25%30.04 "HgN/A
4:00 PM75 °FScattered clouds.7 mph24%30.04 "HgN/A
Weather by CustomWeather, © 2014

See weather overview